Temp
-4 -4 -3 -4 -4 -5 -7 -8 -8 -7 -7 -7 -8 -8 -7 -8 -9 -9 -8 -7 -7 -6 -6 -6 -6 -5 -5 -5 -5 -5 -6 -6 -6 -6 -6 -6 -6 -6 -6 -6 -6 -6 -6 -6
-4 -4 -5 -5 -5 -6 -6 -8 -8 -8 -8 -8 -8 -7 -8 -7 -8 -8 -9 -7 -6 -6 -6 -6 -5 -5 -5 -6 -5 -5 -6 -6 -6 -5 -5 -5 -5 -6 -6 -6 -6 -6 -6 -6
-4 -5 -5 -4 -4 -5 -5 -5 -8 -8 -8 -8 -8 -8 -8 -8 -8 -8 -8 -7 -6 -6 -5 -5 -5 -5 -5 -5 -5 -6 -6 -6 -6 -5 -5 -6 -6 -6 -6 -5 -6 -6 -6 -6
-5 -5 -5 -5 -4 -5 -5 -5 -7 -9 -8 -8 -7 -7 -8 -8 -8 -8 -8 -8 -6 -6 -6 -5 -5 -5 -5 -5 -5 -5 -6 -5 -6 -6 -6 -6 -5 -6 -5 -6 -6 -6 -6 -6
-4 -4 -5 -4 -4 -5 -5 -6 -6 -7 -9 -8 -8 -8 -7 -7 -7 -8 -8 -8 -6 -6 -6 -5 -5 -5 -5 -5 -5 -5 -5 -5 -6 -6 -5 -5 -5 -6 -6 -6 -6 -6 -6 -6
-5 -5 -5 -5 -5 -5 -6 -5 -5 -6 -7 -8 -6 -7 -7 -6 -7 -7 -7 -8 -7 -6 -6 -5 -5 -5 -5 -5 -4 -4 -5 -5 -5 -5 -5 -5 -6 -6 -6 -7 -6 -6 -6 -6
-4 -4 -5 -5 -5 -5 -5 -5 -5 -6 -5 -4 -5 -6 -6 -7 -7 -7 -8 -8 -7 -6 -6 -6 -5 -4 -5 -5 -4 -4 -4 -4 -5 -5 -5 -5 -5 -5 -5 -6 -6 -6 -6 -6
-5 -4 -4 -4 -4 -4 -4 -4 -4 -3 -4 -6 -6 -4 -4 -7 -7 -7 -8 -7 -7 -6 -6 -5 -5 -5 -5 -5 -5 -5 -5 -5 -5 -5 -5 -4 -4 -4 -4 -5 -5 -5 -5 -5
-5 -5 -4 -5 -5 -5 -4 -4 -4 -6 -7 -6 -6 -5 -6 -7 -7 -7 -6 -7 -7 -6 -5 -5 -5 -5 -5 -5 -5 -5 -5 -5 -4 -4 -4 -4 -4 -4 -4 -4 -5 -5 -5 -5
-7 -8 -6 -4 -5 -5 -5 -5 -5 -5 -6 -6 -6 -6 -6 -5 -5 -6 -5 -5 -6 -6 -5 -5 -5 -5 -5 -5 -5 -4 -4 -4 -4 -4 -4 -4 -4 -4 -4 -5 -5 -5 -5 -5
-7 -10 -8 -7 -4 -4 -4 -4 -4 -5 -5 -6 -6 -6 -6 -6 -4 -5 -5 -5 -5 -6 -5 -5 -5 -5 -5 -5 -4 -4 -4 -4 -3 -4 -4 -4 -5 -5 -5 -5 -6 -6 -6 -6
-7 -8 -8 -5 -4 -5 -5 -5 -4 -4 -4 -5 -6 -5 -5 -6 -6 -5 -5 -5 -5 -5 -6 -5 -5 -5 -5 -5 -5 -4 -4 -4 -4 -5 -4 -5 -5 -4 -5 -5 -6 -6 -7 -6
-9 -7 -7 -9 -10 -6 -5 -5 -5 -4 -5 -5 -5 -6 -4 -4 -5 -5 -5 -5 -6 -6 -6 -7 -6 -5 -5 -5 -5 -5 -4 -5 -4 -4 -4 -4 -5 -5 -5 -5 -5 -6 -6 -6
-6 -6 -6 -7 -5 -7 -4 -4 -5 -5 -4 -6 -5 -7 -4 -4 -5 -5 -5 -5 -6 -6 -7 -8 -7 -5 -5 -5 -5 -5 -5 -5 -5 -5 -5 -5 -5 -5 -5 -5 -5 -6 -6 -6
-8 -7 -7 -8 -10 -9 -7 -5 -4 -4 -5 -5 -7 -6 -7 -4 -5 -5 -5 -5 -5 -5 -4 -5 -5 -5 -4 -4 -5 -5 -5 -5 -5 -5 -5 -5 -6 -6 -5 -6 -6 -6 -6 -6
-9 -8 -8 -9 -11 -9 -7 -5 -5 -5 -4 -5 -6 -8 -7 -8 -4 -5 -5 -4 -5 -5 -5 -6 -6 -6 -6 -5 -5 -5 -6 -5 -5 -5 -5 -6 -6 -6 -6 -6 -6 -6 -6 -7
-9 -10 -10 -8 -9 -7 -7 -5 -5 -6 -7 -6 -6 -7 -9 -6 -4 -4 -5 -5 -4 -5 -5 -5 -5 -5 -5 -5 -5 -5 -6 -6 -5 -5 -5 -6 -6 -6 -6 -7 -6 -6 -7 -7
-11 -10 -9 -9 -10 -8 -6 -7 -6 -6 -7 -7 -8 -7 -6 -5 -3 -5 -5 -5 -5 -6 -6 -6 -6 -6 -5 -5 -5 -5 -5 -6 -6 -6 -5 -6 -6 -6 -6 -7 -7 -6 -6 -7
-13 -11 -10 -9 -9 -9 -9 -8 -8 -7 -6 -6 -6 -5 -5 -5 -4 -5 -5 -5 -5 -5 -5 -5 -6 -6 -6 -6 -6 -6 -6 -5 -6 -6 -6 -6 -6 -6 -6 -6 -7 -7 -6 -6
-14 -13 -11 -10 -10 -12 -12 -12 -8 -7 -7 -7 -6 -6 -5 -5 -4 -5 -5 -6 -5 -5 -4 -4 -4 -5 -5 -5 -5 -5 -5 -6 -6 -6 -6 -6 -6 -6 -6 -6 -6 -7 -7 -7
-16 -15 -13 -12 -11 -11 -13 -13 -9 -9 -10 -7 -7 -6 -5 -5 -5 -4 -4 -5 -5 -5 -5 -4 -4 -4 -4 -4 -5 -4 -5 -5 -6 -6 -6 -6 -6 -6 -6 -6 -6 -6 -7 -7
-17 -16 -14 -13 -12 -12 -13 -12 -12 -10 -8 -7 -6 -5 -4 -3 -4 -5 -5 -4 -5 -5 -5 -4 -4 -4 -4 -4 -4 -4 -4 -5 -5 -6 -6 -6 -6 -6 -6 -6 -6 -6 -6 -6
-19 -18 -16 -15 -13 -12 -13 -13 -11 -10 -7 -7 -5 -5 -4 -5 -5 -5 -5 -4 -5 -5 -5 -5 -4 -4 -4 -4 -4 -4 -4 -4 -4 -4 -4 -5 -6 -6 -6 -6 -6 -7 -7 -7
-19 -17 -15 -15 -13 -12 -12 -11 -10 -8 -7 -6 -6 -5 -5 -5 -5 -5 -5 -5 -5 -5 -5 -5 -5 -4 -4 -4 -4 -4 -4 -4 -4 -4 -4 -5 -5 -6 -6 -6 -7 -7 -7 -7
-17 -17 -16 -15 -14 -13 -11 -10 -10 -8 -7 -8 -8 -7 -6 -5 -5 -5 -5 -5 -5 -5 -5 -5 -5 -5 -4 -4 -4 -4 -4 -5 -4 -4 -4 -4 -5 -5 -6 -6 -7 -7 -7 -8
-19 -16 -15 -14 -14 -13 -12 -11 -10 -10 -10 -10 -9 -7 -7 -7 -7 -6 -5 -5 -5 -5 -5 -5 -5 -5 -5 -4 -4 -4 -4 -5 -5 -5 -4 -4 -4 -5 -5 -6 -6 -7 -7 -8
Height
5840 5841 5843 5850 5855 5859 5862 5868 5873 5882 5881 5883 5887 5889 5889 5890 5887 5889 5886 5887 5887 5888 5889 5891 5894 5896 5900 5903 5906 5909 5912 5915 5917 5920 5923 5925 5927 5929 5931 5934 5935 5937 5938 5939
5834 5839 5840 5842 5846 5850 5856 5862 5870 5876 5880 5880 5884 5886 5887 5887 5888 5886 5886 5886 5886 5887 5889 5890 5892 5895 5899 5903 5906 5909 5911 5914 5916 5919 5923 5925 5928 5930 5932 5933 5935 5937 5938 5938
5830 5834 5833 5836 5839 5842 5848 5854 5863 5871 5874 5878 5877 5880 5883 5886 5888 5885 5884 5884 5885 5887 5888 5890 5892 5894 5897 5901 5905 5908 5910 5912 5916 5919 5923 5926 5928 5929 5930 5932 5934 5937 5937 5937
5822 5825 5827 5831 5834 5838 5843 5851 5854 5861 5867 5870 5871 5876 5876 5880 5882 5880 5882 5882 5884 5885 5887 5889 5892 5895 5897 5899 5902 5905 5908 5912 5915 5918 5922 5924 5926 5928 5930 5932 5934 5935 5937 5937
5818 5819 5823 5826 5832 5835 5842 5845 5847 5851 5856 5863 5865 5870 5877 5876 5877 5879 5879 5881 5882 5883 5885 5887 5890 5892 5894 5897 5901 5904 5907 5910 5913 5916 5919 5922 5925 5927 5930 5931 5933 5934 5936 5937
5805 5812 5815 5822 5824 5828 5833 5838 5842 5845 5848 5848 5856 5864 5870 5875 5876 5879 5879 5879 5880 5881 5883 5885 5888 5890 5894 5896 5900 5904 5907 5910 5912 5915 5918 5921 5922 5925 5928 5929 5931 5933 5935 5936
5796 5802 5809 5811 5815 5819 5824 5828 5833 5837 5835 5836 5851 5854 5860 5869 5873 5875 5876 5877 5878 5879 5881 5882 5886 5891 5893 5897 5900 5903 5906 5909 5911 5914 5917 5919 5921 5924 5926 5928 5930 5932 5933 5934
5783 5789 5797 5803 5807 5814 5818 5821 5825 5828 5833 5839 5844 5843 5850 5859 5864 5871 5871 5875 5875 5876 5878 5880 5884 5888 5892 5894 5896 5900 5904 5907 5910 5912 5915 5917 5920 5922 5925 5926 5928 5929 5931 5932
5772 5783 5790 5795 5802 5806 5811 5812 5826 5829 5835 5839 5842 5842 5848 5853 5854 5858 5863 5867 5872 5872 5876 5879 5882 5885 5888 5892 5895 5898 5901 5904 5908 5911 5913 5915 5918 5920 5922 5924 5925 5926 5928 5929
5762 5770 5778 5784 5789 5795 5801 5815 5813 5818 5827 5833 5839 5842 5843 5843 5847 5851 5855 5861 5868 5869 5873 5876 5879 5883 5886 5889 5892 5896 5900 5904 5906 5909 5911 5914 5916 5918 5919 5920 5922 5923 5924 5925
5748 5755 5767 5771 5773 5786 5795 5797 5805 5816 5819 5828 5835 5840 5839 5840 5841 5844 5850 5855 5861 5868 5869 5872 5876 5880 5883 5886 5890 5894 5898 5901 5905 5907 5909 5911 5912 5913 5914 5916 5917 5918 5919 5921
5731 5736 5749 5760 5772 5778 5785 5794 5801 5805 5813 5820 5834 5839 5831 5836 5835 5839 5844 5850 5857 5863 5866 5867 5871 5875 5879 5884 5887 5891 5894 5898 5901 5904 5906 5909 5910 5911 5911 5912 5913 5914 5916 5917
5707 5721 5735 5751 5760 5763 5771 5782 5793 5801 5809 5812 5821 5829 5823 5829 5831 5835 5840 5845 5851 5857 5861 5864 5867 5871 5875 5880 5884 5889 5892 5896 5899 5902 5903 5905 5907 5909 5909 5909 5910 5911 5912 5913
5697 5712 5724 5742 5752 5761 5764 5773 5782 5791 5797 5806 5813 5822 5817 5824 5828 5831 5836 5841 5845 5850 5856 5861 5863 5868 5872 5877 5881 5885 5889 5891 5894 5897 5900 5902 5904 5905 5906 5906 5906 5908 5909 5910
5685 5700 5713 5729 5742 5748 5754 5764 5772 5780 5790 5798 5811 5812 5816 5816 5822 5825 5830 5834 5837 5841 5845 5850 5856 5861 5866 5871 5876 5879 5883 5887 5889 5893 5896 5898 5899 5901 5902 5903 5904 5905 5906 5906
5670 5687 5699 5713 5722 5728 5737 5748 5761 5770 5782 5790 5800 5809 5811 5812 5816 5821 5824 5828 5833 5838 5845 5849 5853 5856 5861 5866 5870 5874 5878 5881 5884 5888 5892 5893 5894 5896 5899 5900 5900 5901 5903 5903
5658 5674 5684 5698 5708 5715 5724 5739 5750 5760 5769 5780 5787 5797 5803 5803 5808 5815 5819 5824 5826 5832 5838 5843 5847 5852 5857 5861 5865 5869 5872 5875 5881 5884 5887 5890 5891 5893 5895 5896 5897 5898 5898 5899
5648 5658 5670 5683 5697 5703 5723 5732 5740 5746 5754 5765 5775 5782 5789 5794 5803 5809 5815 5820 5824 5828 5832 5837 5843 5848 5853 5857 5859 5863 5865 5871 5875 5879 5883 5886 5888 5889 5890 5891 5892 5891 5892 5894
5640 5652 5663 5676 5689 5704 5711 5717 5724 5732 5746 5756 5763 5774 5780 5788 5795 5804 5808 5813 5819 5822 5825 5829 5835 5841 5845 5848 5851 5854 5859 5865 5869 5874 5878 5880 5881 5883 5885 5886 5886 5887 5887 5889
5631 5640 5652 5663 5676 5688 5699 5701 5708 5719 5731 5742 5749 5760 5767 5775 5784 5794 5799 5802 5805 5810 5813 5818 5824 5829 5832 5837 5844 5847 5853 5858 5864 5870 5871 5871 5874 5876 5878 5879 5880 5882 5882 5883
5620 5629 5639 5651 5659 5673 5682 5685 5695 5707 5718 5724 5735 5745 5753 5762 5771 5779 5788 5796 5802 5806 5809 5814 5818 5824 5829 5834 5837 5841 5846 5851 5861 5859 5862 5864 5866 5869 5871 5872 5873 5875 5877 5878
5611 5619 5630 5642 5649 5656 5668 5670 5682 5689 5699 5708 5723 5731 5740 5750 5762 5773 5778 5787 5793 5799 5803 5806 5810 5816 5821 5826 5830 5835 5838 5845 5846 5849 5852 5856 5859 5860 5863 5865 5867 5869 5870 5871
5601 5607 5620 5628 5639 5648 5657 5654 5661 5669 5683 5696 5710 5721 5731 5741 5753 5761 5771 5777 5784 5790 5794 5798 5803 5808 5813 5819 5824 5828 5832 5833 5837 5840 5843 5847 5850 5853 5854 5857 5858 5859 5860 5862
5591 5598 5603 5607 5620 5624 5635 5640 5650 5660 5674 5688 5699 5710 5718 5728 5740 5749 5759 5768 5775 5781 5786 5790 5795 5801 5805 5809 5814 5819 5823 5826 5828 5831 5833 5837 5841 5843 5845 5847 5849 5851 5852 5853
5581 5585 5590 5598 5609 5614 5619 5628 5639 5650 5663 5676 5687 5698 5708 5718 5729 5738 5746 5756 5765 5771 5776 5781 5787 5791 5796 5801 5805 5809 5812 5816 5819 5821 5823 5826 5829 5832 5834 5835 5839 5841 5840 5843
5569 5574 5577 5588 5595 5600 5608 5614 5626 5639 5651 5663 5672 5683 5696 5707 5715 5726 5736 5742 5751 5760 5766 5771 5774 5780 5787 5790 5795 5798 5802 5806 5809 5812 5814 5817 5819 5822 5824 5826 5827 5828 5830 5830
Wind_Speed
21 23 28 30 25 27 27 24 27 24 23 28 23 20 18 19 18 15 18 14 15 20 20 21 20 23 24 22 20 18 20 21 20 20 20 19 17 14 12 11 10 9 8 6
24 15 20 28 32 31 32 29 26 27 26 30 27 25 23 23 23 23 19 16 17 20 19 21 22 24 24 22 20 19 19 21 22 22 20 18 16 15 13 12 11 9 8 5
23 20 23 30 36 38 35 32 29 26 27 31 30 29 29 25 26 27 23 20 20 19 20 20 22 25 26 24 22 21 21 22 23 20 18 17 16 16 16 14 11 9 8 5
30 28 32 29 33 36 37 32 31 29 30 30 36 30 30 28 28 30 26 24 20 19 19 20 22 23 25 26 25 24 24 23 22 19 18 19 20 18 15 10 10 11 9 6
32 33 32 30 23 28 32 36 38 37 32 32 30 34 25 26 28 28 26 21 21 21 20 20 23 26 28 27 25 24 24 23 22 22 21 20 18 17 15 14 14 13 9 6
39 34 35 30 29 28 30 38 40 41 40 45 40 34 30 29 25 24 29 21 22 23 21 20 24 28 28 26 24 22 22 22 23 24 22 21 20 19 18 18 17 15 12 10
44 40 36 39 39 37 34 40 45 46 47 47 42 41 36 28 27 30 31 27 23 21 23 24 24 25 26 23 19 19 21 22 22 21 20 20 19 18 18 17 15 15 14 13
49 49 46 42 41 38 38 38 41 43 44 35 34 39 35 31 29 34 28 30 29 25 25 26 25 26 26 25 24 22 21 21 21 21 19 19 18 16 16 15 16 16 15 14
52 48 43 44 40 41 39 41 30 33 23 26 25 24 24 30 34 36 37 36 33 29 26 26 27 27 26 25 24 24 25 24 23 21 20 19 17 16 18 19 19 18 16 15
52 38 52 46 47 47 45 33 40 39 31 26 27 24 24 18 24 34 36 40 36 33 24 28 28 29 29 27 26 24 23 21 20 21 20 18 17 19 21 23 22 22 21 19
62 46 39 53 55 48 46 47 40 36 37 27 21 16 21 25 16 31 34 38 38 32 24 27 28 29 30 29 27 24 23 23 21 20 20 19 18 18 19 20 22 24 25 22
63 69 56 52 52 50 47 47 42 40 36 33 18 15 29 22 22 31 35 38 38 33 27 24 27 30 29 28 27 26 25 24 21 19 19 17 16 13 11 11 15 19 21 22
66 71 67 48 42 53 56 51 46 41 35 33 34 20 26 18 19 30 37 35 37 36 32 26 27 31 26 28 27 25 23 19 19 20 21 21 16 12 10 12 14 15 16 18
70 68 67 57 52 46 56 56 51 47 46 35 33 27 35 24 19 28 36 38 38 39 34 31 28 28 26 26 24 22 22 21 20 16 11 13 19 14 12 14 14 13 14 14
70 67 66 60 32 41 45 53 57 55 46 42 25 30 25 31 19 31 36 40 44 43 41 36 33 31 27 26 28 28 27 25 22 17 12 9 13 19 16 15 16 16 16 16
72 70 65 66 49 58 57 57 56 56 54 47 40 27 27 29 28 28 39 38 41 40 35 37 36 37 35 32 32 31 30 27 25 17 13 14 13 18 18 17 19 18 15 14
77 70 69 70 71 70 67 62 59 55 50 50 49 41 27 37 37 30 32 39 39 41 41 41 39 36 35 34 34 33 33 30 22 18 17 18 18 15 15 20 22 22 18 18
76 76 75 73 70 72 65 58 58 56 55 51 47 47 51 49 31 26 30 30 32 45 47 45 45 43 39 38 40 38 37 32 29 27 23 21 22 18 16 18 22 24 24 21
72 73 74 71 69 61 65 64 61 62 56 52 52 47 45 41 39 33 28 30 31 36 42 51 48 47 44 44 45 46 42 35 33 33 31 27 29 28 26 19 23 26 29 26
71 72 74 75 69 55 41 52 70 67 63 61 57 53 53 52 48 42 37 39 38 39 41 40 43 47 45 42 39 39 36 38 38 36 36 37 35 30 25 24 24 27 28 30
63 70 73 73 74 65 49 43 68 70 60 63 62 60 59 57 54 51 45 38 36 37 40 39 38 37 35 36 35 30 32 37 40 46 44 40 37 36 31 28 26 25 25 29
54 70 72 73 75 76 54 70 62 58 71 67 68 65 65 62 56 50 49 44 42 41 43 43 42 41 37 33 31 30 32 31 42 48 46 42 37 34 31 32 31 29 28 30
55 58 67 74 76 79 75 71 71 82 72 71 71 68 66 63 58 54 50 47 44 42 43 46 45 43 40 37 35 35 34 34 31 33 34 36 36 34 34 34 34 34 33 35
47 68 76 83 87 88 87 85 85 87 81 78 67 72 70 67 61 56 52 51 48 44 42 45 45 42 42 41 39 36 36 36 34 34 35 34 36 38 37 37 35 37 41 43
47 58 71 83 85 89 91 93 88 87 82 81 75 71 67 67 64 59 57 52 48 48 46 45 41 43 43 42 40 40 38 37 37 36 38 39 38 39 41 42 41 42 44 46
24 39 54 67 73 86 92 90 92 87 82 79 77 76 75 69 64 59 56 54 52 50 47 47 49 45 41 43 43 40 40 38 37 36 37 40 43 43 43 43 44 45 45 44
Wind_Direction
227 222 220 224 222 224 214 220 208 220 212 219 211 213 237 257 256 234 264 262 245 210 202 198 193 184 188 187 185 185 181 177 173 178 182 186 190 192 198 201 199 192 188 190
223 222 214 210 212 214 219 209 217 209 215 215 222 220 233 212 260 255 249 263 242 213 204 203 195 187 182 185 185 183 183 178 180 181 188 188 193 195 198 202 209 208 205 201
224 206 209 212 210 209 206 208 209 215 215 223 222 222 226 225 232 248 250 261 241 221 209 208 203 193 185 185 184 185 183 182 181 181 185 185 192 194 200 207 209 205 212 211
224 212 215 213 216 214 209 201 207 208 208 228 224 223 233 229 238 248 257 263 232 221 220 210 209 199 191 191 191 190 188 186 182 177 187 194 201 206 210 216 223 223 218 210
221 218 216 220 221 221 213 205 210 212 215 217 216 229 221 253 241 239 248 244 233 216 220 211 205 202 198 198 198 197 194 188 184 183 192 197 202 211 219 227 233 233 234 237
224 222 219 216 218 216 210 209 211 217 221 222 215 218 223 216 234 233 245 238 240 221 215 219 212 208 205 204 203 201 199 195 194 193 199 204 208 210 215 224 231 237 240 246
226 222 217 215 217 214 210 210 211 218 225 233 218 225 223 222 222 230 229 237 245 232 213 217 217 212 210 210 211 205 205 201 203 203 206 211 214 211 212 219 227 237 241 245
226 221 218 218 220 222 215 217 217 220 228 235 234 230 230 218 218 219 235 228 240 239 221 216 219 217 215 206 204 205 208 209 207 209 213 217 220 219 223 231 236 242 245 250
228 223 225 225 223 224 219 222 224 218 244 231 240 254 234 228 229 228 226 225 229 242 226 221 218 218 216 212 205 204 207 210 208 212 217 225 232 239 242 243 247 250 251 253
215 228 222 219 219 219 225 223 218 216 212 229 232 227 248 241 227 221 223 228 229 242 233 223 219 218 218 213 212 213 215 215 213 219 228 241 253 262 263 264 263 262 261 258
213 214 216 220 218 219 219 222 218 223 220 218 227 240 252 237 223 209 217 222 226 232 241 228 221 220 221 217 213 211 214 217 220 228 237 243 249 255 262 266 265 264 264 264
208 216 210 219 221 220 220 225 223 223 219 216 204 217 237 213 213 205 213 219 222 227 235 240 225 223 218 220 212 208 210 217 223 233 238 240 259 273 275 268 264 266 263 263
206 212 214 206 220 219 216 217 219 222 218 225 211 210 230 207 203 203 208 212 213 218 230 230 228 229 214 219 218 217 219 228 239 247 247 245 259 278 274 271 270 269 267 266
211 211 213 215 224 223 216 217 217 218 219 215 222 208 235 201 204 204 208 210 208 215 213 210 214 222 218 222 223 224 228 232 233 235 250 267 267 269 274 268 272 275 270 268
211 210 212 200 198 213 224 220 219 219 220 219 212 221 229 238 207 199 206 218 223 220 220 216 211 216 217 218 227 231 230 227 234 238 238 263 279 260 270 278 274 267 263 258
209 208 211 204 198 207 214 214 216 225 222 223 213 207 227 225 220 204 204 216 222 225 217 214 218 218 220 222 224 229 235 236 239 239 249 252 267 257 266 276 274 270 261 252
207 206 209 209 211 216 215 214 216 216 223 221 223 213 205 225 226 215 215 217 223 225 227 227 229 229 231 230 228 228 231 237 242 248 250 259 259 265 271 274 275 271 263 247
209 207 209 211 210 219 219 219 219 219 215 216 215 217 218 226 217 213 212 211 218 223 225 229 233 237 239 238 232 231 235 236 242 246 255 255 256 260 261 270 273 270 267 258
211 212 211 212 211 217 219 218 221 223 222 224 227 227 229 227 225 212 218 218 219 225 228 229 230 233 237 238 234 234 239 243 245 251 257 260 256 264 260 265 257 262 262 261
214 213 214 211 211 209 214 215 222 224 224 220 223 220 222 221 220 219 216 217 220 222 229 234 233 232 234 237 242 249 250 249 253 256 256 259 263 258 252 251 256 258 263 265
216 217 216 214 212 209 208 222 223 223 223 221 222 223 224 222 219 220 219 219 220 225 234 237 238 241 241 242 243 245 252 252 252 254 255 261 258 255 252 246 251 263 271 276
221 219 220 219 217 217 205 217 220 218 220 225 223 224 223 225 223 224 227 222 222 225 230 237 236 237 238 238 241 243 244 246 244 245 250 255 251 248 249 250 255 261 263 272
214 216 221 222 223 220 214 220 219 224 223 224 225 224 227 229 228 229 227 228 225 223 227 232 236 240 241 237 238 240 241 240 242 241 236 240 242 247 249 250 256 261 271 277
223 221 221 219 219 222 220 221 225 227 228 228 227 228 228 231 230 232 231 229 230 228 228 231 234 237 243 245 243 241 241 242 241 244 242 241 246 248 250 254 256 259 262 269
226 226 225 225 224 226 225 224 226 227 227 229 231 232 231 234 235 236 239 235 230 232 233 235 234 236 239 243 243 243 243 245 244 241 242 240 242 245 247 252 256 258 264 266
214 219 230 233 231 230 228 231 229 228 230 231 232 232 232 233 236 235 237 241 239 235 236 237 238 240 237 239 241 243 244 243 244 242 243 244 244 244 248 253 257 261 265 267